User: anonymous   Login
Location: Eaton
(41.3139°N, 82.0207°W)
Time: 04:58:37
(UTC+00:00)
Language:

DELTA 2 DEB (DPAF) - Orbit

View from above orbital plane
View from above orbital plane
View from above satellite
View from above satellite

Ground track
Ground track

The orbit data is extracted from the following two-line orbital elements,

1 29110U 06016D   21261.56506573  .00000717  00000-0  11216-3 0  9994
2 29110  98.3855  48.7547 0002986 193.2627 256.3049 14.75991405825361
Epoch (UTC): 18 September 2021 13:33:41
Eccentricity: 0.0002986
inclination: 98.3855°
perigee height: 640 km
apogee height: 644 km
right ascension of ascending node: 48.7547°
argument of perigee: 193.2627°
revolutions per day: 14.75991405
mean anomaly at epoch: 256.3049°
orbit number at epoch: 82536

The dashed part of the orbit path shows where the satellite is in the earth's shadow,  

DLR